星链-5577 (STARLINK-5577 )

导读

STARLINK-5577是美国SpaceX星链星座中的一颗通信卫星,于2023年3月3日发射入轨,属于星链第一代组网卫星。它运行在近地轨道,配备氪离子推进系统与自主避碰能力,依托相控阵天线为全球提供高速低延迟卫星互联网接入。作为星链规模化部署的一部分,它承担着扩展星座覆盖范围的任务,退役后会再入大气层完全销毁,减少空间碎片影响,截至当前已在轨稳定运行三年,是全球低轨巨型通信星座的组成单元。

Basic Information
目录编号:
55751
目录名称:
STARLINK-5577
国际标识:
2023-028L
轨道中心:
EARTH
卫星名称:
星链-5577
卫星全名:
星链-5577 (STARLINK-5577 )
卫星状态:
在轨 (已飞行1299 天)
发射日期:
2023-03-03 UTC
国别 :
美国 (US)
星等 :
--
This satellite is enrolled in the Space Conjunction Data Service (SCDS) and the current flight risk assessment level is: No High Risk
Orbit Information
数据来源 国际轨道数据
星历时间: 2026-09-22T14:00:02+0800
13小时前
查看轨道信息
半长轴: 6927.033km
偏心率: 0.0004012
轨道倾角: 70.001°
近地点辐角 308.055°
升交点赤经 108.884°
平近点角 13.875°
近地点: 546.116km
远地点: 551.676km
周期: 95.627分钟
每日圈数: 15.058506
Detailed Information
固有亮度:
5
最大亮度:
2.5
卫星平台:
Starlink v1.5
覆盖范围:
全球
运营商:
太空探索技术公司
运营商所在国:
美国
制造商(研发单位):
太空探索技术公司
制造商所在国:
美国
使用方式:
暂无
Satellite Introduction
星链(Starlink)计划是由太空探索技术公司(SpaceX)提出的一个巨型低轨卫星互联网星座项目,计划在2019年至2024年间在太空搭建由约1.2万颗卫星组成的“星链”网络,其中1584颗将部署在地球上空550千米处的近地轨道,并从2020年开始工作。该卫星仍在工作。
2D Orbit Map
3D Orbit Map
Orbit Altitude Analysis Chart
Orbit Inclination Analysis Chart
Orbit Comprehensive Analysis Chart
View Comprehensive Chart
Conjunction Data List
Event ID Objects TCA Miss Dist (km) Collision Risk Probability Collision Risk Index (CRI) Action
CDM_260923-204302-066305-575121
2026-09-23T
20:43:46+0000
1.199 km
极远距离
1.052822E-5 中风险 0.55
CDM_260922-074504-317105-575121
2026-09-22T
07:45:02+0000
1.347 km
极远距离
8.320624E-6 低风险 0.53
CDM_260916-005203-215005-575126
2026-09-16T
00:52:24+0000
1.542 km
极远距离
6.200038E-6 低风险 0.51
CDM_260922-132004-317105-575121
2026-09-22T
13:20:04+0000
2.048 km
极远距离
2.361003E-6 低风险 0.42
Miss Distance Evolution Trend with All Objects Subscribe to Flight Safety Assessment
Collision Probability Evolution Trend with All Objects Subscribe to Flight Safety Assessment